STARLINK-38093

Last updated on Sun Aug 09 2026 00:02:04 GMT+0000 (Coordinated Universal Time)

1 69980U 26159F 26220.58335648 -.00138123 00000+0 -93745-3 0 9999 2 69980 97.2838 60.6424 0001362 84.3802 300.4236 15.75257007 5765
UTC large
Height (km)
Speed (km/s)
/
Latitude / Longitude
Inclination (degrees)
Orbital Period (minutes)
Azimuth
Elevation
Range (km)
Doppler Factor

Next 0 passes for location: London (51.5072 / 0.1276)

No passes found over London.
STARLINK-38093